User: anonymous   Login
Location: Bu�n Treun
(12.1333°N, 108.3167°E)
Time: 08:53:17
(UTC+00:00)
Language:

SL-4 R/B - Orbit

View from above orbital plane
View from above orbital plane
View from above satellite
View from above satellite

Ground track
Ground track

The orbit data is extracted from the following two-line orbital elements,

1 39679U 14021B   20269.74993584  .00000269  00000-0  31010-4 0  9996
2 39679  51.6186   1.9468 0171105 293.4400  64.8662 15.06490562354460
Epoch (UTC): 25 September 2020 17:59:54
Eccentricity: 0.0171105
inclination: 51.6186°
perigee height: 428 km
apogee height: 665 km
right ascension of ascending node: 1.9468°
argument of perigee: 293.4400°
revolutions per day: 15.06490562
mean anomaly at epoch: 64.8662°
orbit number at epoch: 35446

The dashed part of the orbit path shows where the satellite is in the earth's shadow,  

DLR